Weather History for KBVN - November, 2011

Change the Weather History Date:

Friday, November 11, 2011

  Actual Average (KOFK) Record (KOFK)
Temperature  
Mean Temperature 44 °F 39 °F  
Max Temperature 66 °F 50 °F 77 °F (2005)
Min Temperature 23 °F 28 °F -13 °F (1986)
Degree Days  
Heating Degree Days 20 26  
Month to date heating degree days 257  
Since 1 July heating degree days 842  
Cooling Degree Days 0 0  
Month to date cooling degree days 0  
Year to date cooling degree days 915  
Moisture  
Dew Point 20 °F    
Average Humidity 46    
Maximum Humidity 90    
Minimum Humidity 15    
Precipitation  
Precipitation 0.00 in 0.04 in 1.40 in (1982)
Month to date precipitation 0.53  
Year to date precipitation 25.82  
Snow  
Snow 0.00 in 0.10 in - ()
Month to date snowfall 1.0  
Since 1 July snowfall 1.8  
Snow Depth -    
Sea Level Pressure  
Sea Level Pressure 29.75 in    
Wind  
Wind Speed 5 mph (WSW)    
Max Wind Speed 13 mph    
Max Gust Speed 16 mph    
Visibility 10 miles    
Events      
T = Trace of Precipitation, MM = Missing Value Source: NWS Daily Summary

Daily Weather History Graph

Daily Weather History Graph

Search for Another Location

Airport or City:

Trip Planner

Search our weather history database for the weather conditions in past years. The results will help you decide how hot, cold, wet, or windy it might be!

Date:

Astronomy

Nov. 11, 2011 Rise Set
Actual Time 7:16 AM CST 5:15 PM CST
Civil Twilight 6:46 AM CST 5:45 PM CST
Nautical Twilight 6:13 AM CST 6:18 PM CST
Astronomical Twilight 5:40 AM CST 6:51 PM CST
Moon 5:44 PM CST (11/11) 8:07 AM CST (11/11)
Length of Visible Light 10h 58m
Length of Day
9h 59m
Full, 99% of the Moon is Illuminated
Nov 11
Full
Nov 18
Last Quarter
Nov 25
New
Dec 2
First Quarter
Dec 10
Full

Hourly Weather History & Observations

Time (CST) Temp. Windchill Dew Point Humidity Pressure Visibility Wind Dir Wind Speed Gust Speed Precip Events Conditions
12:15 AM 32.0 °F 26.4 °F 24.6 °F 74% 29.88 in 10.0 mi SSE 5.8 mph - N/A   Clear
12:35 AM 31.8 °F 26.2 °F 24.4 °F 74% 29.87 in 10.0 mi South 5.8 mph - N/A   Clear
12:55 AM 32.0 °F 26.4 °F 25.2 °F 76% 29.86 in 10.0 mi ESE 5.8 mph - N/A   Clear
1:15 AM 30.6 °F 24.7 °F 24.4 °F 78% 29.84 in 10.0 mi SE 5.8 mph - N/A   Clear
1:35 AM 29.7 °F 23.7 °F 24.3 °F 80% 29.83 in 10.0 mi SE 5.8 mph - N/A   Clear
1:55 AM 29.7 °F 24.7 °F 24.3 °F 80% 29.82 in 10.0 mi SE 4.6 mph - N/A   Clear
2:15 AM 30.2 °F 25.4 °F 25.0 °F 81% 29.81 in 10.0 mi SE 4.6 mph - N/A   Clear
2:35 AM 29.7 °F 26.1 °F 24.8 °F 82% 29.80 in 10.0 mi SE 3.5 mph - N/A   Clear
2:55 AM 31.1 °F 27.7 °F 25.0 °F 78% 29.79 in 10.0 mi SSE 3.5 mph - N/A   Clear
3:15 AM 29.7 °F - 24.6 °F 81% 29.79 in 10.0 mi Calm Calm - N/A   Clear
3:35 AM 28.6 °F - 24.4 °F 84% 29.79 in 10.0 mi Calm Calm - N/A   Clear
3:55 AM 25.9 °F - 20.7 °F 81% 29.78 in 10.0 mi Calm Calm - N/A   Clear
4:35 AM 25.3 °F - 22.8 °F 90% 29.76 in 10.0 mi Calm Calm - N/A   Clear
4:55 AM 28.6 °F 24.8 °F 23.2 °F 80% 29.76 in 10.0 mi NW 3.5 mph - N/A   Clear
5:15 AM 27.9 °F 22.6 °F 21.7 °F 78% 29.77 in 10.0 mi NW 4.6 mph - N/A   Clear
5:35 AM 23.4 °F - 19.0 °F 84% 29.76 in 10.0 mi Calm Calm - N/A   Clear
6:15 AM 24.8 °F 19.1 °F 20.1 °F 82% 29.76 in 10.0 mi NNW 4.6 mph - N/A   Clear
6:35 AM 24.3 °F - 19.2 °F 81% 29.76 in 10.0 mi Calm Calm - N/A   Clear
6:55 AM 26.4 °F 20.9 °F 20.3 °F 78% 29.76 in 10.0 mi NW 4.6 mph - N/A   Clear
7:15 AM 27.3 °F - 19.9 °F 74% 29.77 in 10.0 mi Calm Calm - N/A   Clear
7:35 AM 28.6 °F 21.5 °F 20.7 °F 72% 29.77 in 10.0 mi NNW 6.9 mph - N/A   Clear
8:15 AM 30.4 °F - 23.4 °F 75% 29.78 in 10.0 mi Calm Calm - N/A   Clear
9:15 AM 45.3 °F 41.1 °F 25.3 °F 46% 29.78 in 10.0 mi NW 8.1 mph - N/A   Clear
9:35 AM 49.6 °F - 23.4 °F 36% 29.79 in 10.0 mi NW 6.9 mph - N/A   Clear
10:15 AM 54.9 °F - 22.6 °F 29% 29.79 in 10.0 mi NNW 8.1 mph - N/A   Clear
10:35 AM 57.2 °F - 21.0 °F 25% 29.79 in 10.0 mi NW 9.2 mph - N/A   Clear
10:55 AM 58.5 °F - 20.7 °F 23% 29.79 in 10.0 mi NW 12.7 mph - N/A   Clear
11:15 AM 59.9 °F - 20.7 °F 22% 29.79 in 10.0 mi NW 11.5 mph - N/A   Clear
11:35 AM 61.2 °F - 20.7 °F 21% 29.79 in 10.0 mi NW 10.4 mph - N/A   Clear
11:55 AM 61.9 °F - 20.5 °F 20% 29.78 in 10.0 mi WNW 9.2 mph - N/A   Clear
12:15 PM 63.3 °F - 20.3 °F 19% 29.77 in 10.0 mi West 9.2 mph - N/A   Clear
12:35 PM 64.2 °F - 20.1 °F 18% 29.76 in 10.0 mi West 6.9 mph - N/A   Clear
1:15 PM 65.7 °F - 19.2 °F 17% 29.75 in 10.0 mi West 8.1 mph - N/A   Clear
1:35 PM 65.8 °F - 18.3 °F 16% 29.74 in 10.0 mi West 10.4 mph - N/A   Clear
1:55 PM 66.2 °F - 18.1 °F 16% 29.73 in 10.0 mi West 10.4 mph - N/A   Clear
2:15 PM 66.4 °F - 17.4 °F 15% 29.73 in 10.0 mi West 9.2 mph 16.1 mph N/A   Clear
2:35 PM 66.6 °F - 17.1 °F 15% 29.72 in 10.0 mi WNW 9.2 mph - N/A   Clear
2:55 PM 66.4 °F - 16.7 °F 15% 29.72 in 10.0 mi West 10.4 mph 16.1 mph N/A   Clear
3:15 PM 66.2 °F - 16.7 °F 15% 29.72 in 10.0 mi West 10.4 mph - N/A   Clear
3:35 PM 65.8 °F - 16.7 °F 15% 29.73 in 10.0 mi West 8.1 mph - N/A   Clear
3:55 PM 65.5 °F - 17.1 °F 16% 29.72 in 10.0 mi West 4.6 mph - N/A   Clear
4:35 PM 63.5 °F - 18.3 °F 18% 29.72 in 10.0 mi Calm Calm - N/A   Clear
4:55 PM 61.2 °F - 19.2 °F 20% 29.71 in 10.0 mi Calm Calm - N/A   Clear
5:15 PM 58.1 °F - 19.2 °F 22% 29.71 in 10.0 mi Calm Calm - N/A   Clear
5:35 PM 53.4 °F - 19.4 °F 26% 29.71 in 10.0 mi SSW 3.5 mph - N/A   Clear
5:55 PM 48.9 °F - 18.9 °F 30% 29.71 in 10.0 mi Calm Calm - N/A   Mostly Cloudy
6:15 PM 47.8 °F - 18.7 °F 31% 29.71 in 10.0 mi Calm Calm - N/A   Scattered Clouds
6:35 PM 44.1 °F - 17.6 °F 35% 29.72 in 10.0 mi Calm Calm - N/A   Clear
6:55 PM 41.4 °F - 19.8 °F 42% 29.72 in 10.0 mi Calm Calm - N/A   Clear
7:15 PM 42.8 °F - 18.5 °F 38% 29.72 in 10.0 mi Calm Calm - N/A   Clear
7:35 PM 46.0 °F - 18.5 °F 33% 29.71 in 10.0 mi Calm Calm - N/A   Clear
7:55 PM 41.9 °F - 18.0 °F 38% 29.71 in 10.0 mi Calm Calm - N/A   Clear
8:15 PM 41.2 °F - 18.5 °F 40% 29.70 in 10.0 mi Calm Calm - N/A   Clear
8:35 PM 43.2 °F - 17.8 °F 36% 29.70 in 10.0 mi Calm Calm - N/A   Clear
8:55 PM 38.7 °F 36.3 °F 19.6 °F 46% 29.70 in 10.0 mi ESE 3.5 mph - N/A   Clear
9:15 PM 41.9 °F - 18.1 °F 38% 29.70 in 10.0 mi Calm Calm - N/A   Clear
9:35 PM 43.2 °F 40.5 °F 18.5 °F 37% 29.69 in 10.0 mi SE 4.6 mph - N/A   Clear
9:55 PM 42.3 °F 39.4 °F 20.1 °F 41% 29.68 in 10.0 mi SE 4.6 mph - N/A   Clear
10:15 PM 44.8 °F 43.3 °F 18.5 °F 35% 29.67 in 10.0 mi ESE 3.5 mph - N/A   Clear
10:35 PM 43.7 °F - 18.5 °F 36% 29.67 in 10.0 mi Calm Calm - N/A   Clear
10:55 PM 45.1 °F 42.8 °F 18.3 °F 34% 29.67 in 10.0 mi SSE 4.6 mph - N/A   Clear
11:15 PM 44.6 °F 42.2 °F 18.7 °F 36% 29.67 in 10.0 mi SSE 4.6 mph - N/A   Clear
11:35 PM 41.9 °F 40.0 °F 19.6 °F 41% 29.66 in 10.0 mi SSE 3.5 mph - N/A   Clear
11:55 PM 41.4 °F 39.4 °F 19.9 °F 42% 29.65 in 10.0 mi SSE 3.5 mph - N/A   Clear